OBJECT E, 54686

Orbit data source: Space-Track

You're viewing an Uncataloged Satellite

Recently launched and/or uncataloged satellites may have evolving metadata. Metadata may include but not limited to: Owner, Maufacturer, Bus, Motor, and Mission.

OBJECT E, 54686 is a Chinese satellite in SSO that was launched on Fri, 09 Dec 2022 UTC via a JIELONG-3 launch vehicle from the Yellow Sea Launch Area, China (YSLA). Unknown objects in Earth's orbit typically refer to objects detected orbiting the Earth but have not yet been identified or cataloged. These objects could be anything from previously untracked satellites, spent rocket stages, debris from satellite collisions, or even natural meteoroids temporarily captured by Earth's gravity.

Loading next visibility...
Identifier
54686, 2022-167E
Orbit
SSO
Country
Flag of CNCN / PRC
Related business
Manufacturer
Changguang WJ
Mission
Operational Commercial Imaging
Bus & Motor
JL-1, Unknown motor
Mass
42 kg wet, 42 kg dry
Launch date (UTC)
2022-12-09 (4 years ago)
Launch vehicle
JIELONG-3
Launch site
Yellow Sea Launch Area, China (YSLA)
Object type
Unknown
Shape & HBR
Box + 2 Pan, 0.8 m
Radar Cross Section
2.000 m², Medium (>0.1 m² and < 1m²)

Expand to show TLE details & history
Last TLE update: 22 hours ago

TLE from 22 hours ago
0 OBJECT E
1 54686U 22167E   26172.50126304  .00008917  00000-0  27568-3 0  9992
2 54686  97.6872 340.8582 0008968 146.5204 213.6606 15.33720520195987
Epoch: 2026-06-21T12:01Z
TLE epoch observation values (Epoch: 2026-06-21T12:01:49.126Z)
Latitude
-0.00006°
Longitude
-109.29711°
Altitude
472.935 km
Speed
7.627 km/s
True Right ascension
22h 43m 25s
True Declination
0° 00' 00"
Sunlit
Object was in daylight at epoch
Visualization orbit readout
Latitude
Unknown
Longitude
Unknown
Altitude
Unknown
Speed
Unknown
Apparent Right ascension
Unknown
Apparent Declination
Unknown
Sunlit
N/A
Visualization observer readout
Local Sidereal Time
21:25:34
Azimuth
Unknown
Elevation
Unknown
Doppler factor
Unknown
Orbital elements
Apogee altitude
467.817 km
Perigee altitude
455.549 km
Semi-major axis
6,839.82 km
Eccentricity
0.0009
Inclination
97.6872°
RAAN
340.8582°
Arg. of periapsis
146.5204°
True anomaly
213.60369°
Mean anomaly
213.6606°
Eccentric anomaly
213.63214°
Mean motion
3.83686 °/min
Orbital period
93.83 mins
BSTAR
0.00027568
Loading maneuver chart data...
Computing Atmospheric mass density...
Loading historical data...
Loading historical data...
Loading historical data...
Loading historical data...
Loading historical data...
Loading historical data...
Loading historical data...

Documentation

Showing up to 5 results
|